GW0889 Weather Reports


Display with metric or nautical units.
time (UTC)temp
F
wind
direction
speed
MPH
gust
MPH
rain 1hr
in
rain 24hr
in
rain mn
in
humidity
%
barometer
mb
20260504185053 68 227 7.0 16.0 0.00 0.01 0.01 65 1009.7
20260504184555 67 216 7.0 13.0 0.00 0.01 0.01 67 1009.8
20260504184053 67 206 3.0 15.0 0.00 0.01 0.01 72 1010.0
20260504183555 66 217 7.0 15.0 0.00 0.01 0.01 67 1010.0
20260504183053 67 182 7.0 15.0 0.00 0.01 0.01 65 1009.4
20260504182552 68 258 6.0 15.0 0.00 0.01 0.01 62 1010.4
20260504182051 68 232 8.0 19.0 0.00 0.01 0.01 59 1010.9
20260504181559 69 235 12.0 19.0 0.00 0.01 0.01 57 1011.1
20260504181051 70 226 10.0 24.0 0.00 0.01 0.01 55 1010.9
20260504180552 70 202 11.0 24.0 0.00 0.01 0.01 54 1010.6
20260504180052 71 234 13.0 18.0 0.00 0.01 0.01 52 1010.4
20260504175548 72 218 9.0 16.0 0.00 0.01 0.01 52 1010.3
20260504175049 72 233 9.0 21.0 0.00 0.01 0.01 52 1010.1
20260504174549 73 216 9.0 23.0 0.00 0.01 0.01 51 1010.0
20260504174049 74 229 9.0 14.0 0.00 0.01 0.01 51 1009.9
20260504173548 74 248 4.0 14.0 0.00 0.01 0.01 52 1009.9
20260504173052 73 259 9.0 14.0 0.00 0.01 0.01 52 1009.8
20260504172545 72 219 4.0 13.0 0.00 0.01 0.01 53 1009.9
20260504172044 72 219 7.0 13.0 0.00 0.01 0.01 53 1010.0
20260504171543 71 234 4.0 11.0 0.00 0.01 0.01 56 1010.0
20260504171041 70 207 6.0 11.0 0.00 0.01 0.01 56 1010.0
20260504170536 69 258 5.0 13.0 0.00 0.01 0.01 59 1010.2
20260504151047 62 219 7.0 15.0 0.00 0.01 0.01 68 1011.8
20260504150544 62 225 6.0 15.0 0.00 0.01 0.01 69 1011.7
20260504141026 57 213 6.0 16.0 0.01 0.01 0.01 78 1012.5
20260504140526 57 219 7.0 15.0 0.01 0.01 0.01 78 1012.7
20260504130516 56 292 6.0 15.0 0.00 0.00 0.00 69 1013.1
20260504110552 54 227 2.0 7.0 0.00 0.00 0.00 62 1012.4
20260504100538 53 202 5.0 9.0 0.00 0.00 0.00 61 1012.4
20260504081526 52 177 0.0 2.0 0.00 0.00 0.00 61 1013.0
20260504081026 52 177 0.0 2.0 0.00 0.00 0.00 61 1012.9
20260504080524 52 173 0.0 2.0 0.00 0.00 0.00 61 1013.0
20260504050506 57 228 6.0 11.0 0.00 0.00 0.00 51 1014.1
20260504050005 56 186 6.0 11.0 0.00 0.00 0.00 52 1014.0
20260504045506 56 234 4.0 8.0 0.00 0.00 0.00 53 1014.0
20260504045005 56 176 4.0 8.0 0.00 0.00 0.00 54 1014.2
20260504044509 56 223 3.0 5.0 0.00 0.00 0.00 56 1014.6
20260504044005 56 211 2.0 6.0 0.00 0.00 0.00 55 1014.6
20260504043505 56 246 0.0 6.0 0.00 0.00 0.00 57 1014.8
20260504043008 56 321 0.0 5.0 0.00 0.00 0.00 62 1014.7
20260504042505 56 322 0.0 5.0 0.00 0.00 0.00 60 1014.9
20260504042002 56 320 1.0 5.0 0.00 0.00 0.00 57 1014.7
20260504041503 56 196 0.0 0.0 0.00 0.00 0.00 59 1014.9
20260504041002 56 196 0.0 0.0 0.00 0.00 0.00 61 1015.0
20260504040502 56 196 0.0 0.0 0.00 0.00 0.00 60 1014.9
20260504040002 57 196 0.0 0.0 0.00 0.00 0.00 59 1014.7
20260504035502 57 196 0.0 0.0 0.00 0.00 0.00 58 1014.9
20260504035002 57 196 0.0 0.0 0.00 0.00 0.00 57 1015.2
20260504034502 57 196 0.0 0.0 0.00 0.00 0.00 55 1015.0
20260504034002 57 196 0.0 0.0 0.00 0.00 0.00 56 1014.9
20260504033501 57 196 0.0 0.0 0.00 0.00 0.00 57 1014.8
20260504033001 57 196 0.0 0.0 0.00 0.00 0.00 56 1014.8
20260504032501 57 196 0.0 0.0 0.00 0.00 0.00 55 1014.8
20260504032102 57 196 0.0 0.0 0.00 0.00 0.00 56 1014.8
20260504031623 58 196 0.0 0.0 0.00 0.00 0.00 55 1014.6
20260504031100 58 259 0.0 0.0 0.00 0.00 0.00 54 1014.7
20260504030558 58 259 0.0 0.0 0.00 0.00 0.00 55 1014.8
20260504030059 58 274 0.0 0.0 0.00 0.00 0.00 55 1014.9
20260504025600 58 275 0.0 0.0 0.00 0.00 0.00 55 1015.0
20260504025058 58 275 0.0 0.0 0.00 0.00 0.00 55 1015.1
20260504024604 58 267 0.0 0.0 0.00 0.00 0.00 53 1015.1
20260504024057 58 267 0.0 0.0 0.00 0.00 0.00 51 1015.1
20260504023557 58 267 0.0 0.0 0.00 0.00 0.00 53 1015.0
20260504023058 58 267 0.0 2.0 0.00 0.00 0.00 47 1014.9
20260504022557 58 267 0.0 4.0 0.00 0.00 0.00 47 1015.0
20260504022057 59 271 1.0 4.0 0.00 0.00 0.00 50 1014.9
20260504021555 59 295 1.0 6.0 0.00 0.00 0.00 51 1014.8
20260504021054 59 295 2.0 6.0 0.00 0.00 0.00 50 1014.7
20260504020558 59 272 1.0 3.0 0.00 0.00 0.00 48 1014.6
20260504020108 59 217 0.0 5.0 0.00 0.00 0.00 47 1014.5
20260504015557 59 215 3.0 5.0 0.00 0.00 0.00 42 1014.4
20260504015054 60 188 0.0 4.0 0.00 0.00 0.00 42 1014.3
20260504014553 60 187 0.0 4.0 0.00 0.00 0.00 41 1014.2
20260504014052 60 187 1.0 3.0 0.00 0.00 0.00 40 1014.0
20260504013553 60 187 0.0 4.0 0.00 0.00 0.00 41 1014.0
20260504013052 60 187 0.0 6.0 0.00 0.00 0.00 41 1013.8
20260504012554 60 188 1.0 6.0 0.00 0.00 0.00 40 1013.9
20260504012052 60 189 2.0 5.0 0.00 0.00 0.00 40 1013.9
20260504011548 60 190 3.0 6.0 0.00 0.00 0.00 40 1014.0
20260504011049 60 201 3.0 6.0 0.00 0.00 0.00 40 1014.1
20260504010548 60 186 1.0 3.0 0.00 0.00 0.00 40 1014.1
20260504010050 60 191 1.0 6.0 0.00 0.00 0.00 40 1014.2
20260504005548 60 190 2.0 6.0 0.00 0.00 0.00 40 1014.2
20260504005052 60 200 1.0 5.0 0.00 0.00 0.00 41 1014.2
20260504004547 60 207 2.0 5.0 0.00 0.00 0.00 40 1014.3
20260504004047 60 210 1.0 5.0 0.00 0.00 0.00 39 1014.3
20260504003546 61 212 2.0 5.0 0.00 0.00 0.00 39 1014.4
20260504003046 61 212 3.0 5.0 0.00 0.00 0.00 38 1014.3
20260504002546 61 205 2.0 5.0 0.00 0.00 0.00 38 1014.3
20260504002046 61 217 2.0 6.0 0.00 0.00 0.00 37 1014.3
20260504001551 61 220 2.0 6.0 0.00 0.00 0.00 37 1014.2
20260504001044 62 227 3.0 6.0 0.00 0.00 0.00 36 1014.3
20260504000543 62 224 3.0 5.0 0.00 0.00 0.00 36 1014.3
20260504000043 62 220 3.0 5.0 0.00 0.00 0.00 36 1014.3
20260503235543 62 227 2.0 6.0 0.00 0.00 0.00 36 1014.3
20260503235045 62 229 3.0 6.0 0.00 0.00 0.00 35 1014.4
20260503234601 62 235 3.0 7.0 0.00 0.00 0.00 34 1014.3
20260503234046 62 236 4.0 9.0 0.00 0.00 0.00 34 1014.3
20260503233545 63 231 5.0 12.0 0.00 0.00 0.00 33 1014.2
20260503233047 63 262 7.0 12.0 0.00 0.00 0.00 33 1014.3
20260503232542 63 234 5.0 9.0 0.00 0.00 0.00 33 1014.3
20260503232041 63 240 4.0 10.0 0.00 0.00 0.00 33 1014.3
20260503231538 63 215 5.0 10.0 0.00 0.00 0.00 32 1014.4
20260503231037 64 262 4.0 10.0 0.00 0.00 0.00 32 1014.5
20260503230539 63 291 5.0 10.0 0.00 0.00 0.00 32 1014.6
20260503230036 63 248 3.0 10.0 0.00 0.00 0.00 33 1014.6
20260503225536 63 232 6.0 10.0 0.00 0.00 0.00 33 1014.6
20260503225036 63 221 6.0 11.0 0.00 0.00 0.00 32 1014.6
20260503224535 64 261 5.0 12.0 0.00 0.00 0.00 32 1014.9
20260503224035 64 262 7.0 12.0 0.00 0.00 0.00 32 1014.9
20260503223535 64 241 7.0 12.0 0.00 0.00 0.00 32 1014.6
20260503223035 64 226 7.0 12.0 0.00 0.00 0.00 31 1015.0
20260503222538 65 227 5.0 10.0 0.00 0.00 0.00 31 1015.0
20260503222034 64 222 5.0 10.0 0.00 0.00 0.00 32 1015.0
20260503221505 64 250 6.0 13.0 0.00 0.00 0.00 32 1015.1
20260503221005 64 237 7.0 13.0 0.00 0.00 0.00 32 1015.0
20260503220506 64 213 6.0 12.0 0.00 0.00 0.00 32 1014.8
20260503220005 65 226 8.0 12.0 0.00 0.00 0.00 31 1015.0
20260503215502 66 269 4.0 13.0 0.00 0.00 0.00 31 1015.0
20260503215003 66 250 3.0 13.0 0.00 0.00 0.00 30 1015.0
20260503214602 67 242 5.0 11.0 0.00 0.00 0.00 30 1015.0
20260503214032 67 229 4.0 10.0 0.00 0.00 0.00 30 1015.0
20260503213532 66 232 4.0 11.0 0.00 0.00 0.00 31 1015.1
20260503213036 66 219 6.0 11.0 0.00 0.00 0.00 30 1015.0
20260503212531 67 218 3.0 7.0 0.00 0.00 0.00 30 1015.1
20260503212031 67 232 2.0 11.0 0.00 0.00 0.00 29 1015.1
20260503211530 67 249 7.0 11.0 0.00 0.00 0.00 30 1015.1
20260503211001 67 5 2.0 9.0 0.00 0.00 0.00 31 1015.2
20260503210501 66 281 5.0 9.0 0.00 0.00 0.00 30 1015.3
20260503210105 66 208 4.0 11.0 0.00 0.00 0.00 31 1015.3
20260503205600 66 183 5.0 14.0 0.00 0.00 0.00 32 1015.4
20260503205058 66 235 8.0 14.0 0.00 0.00 0.00 31 1015.4
20260503204559 66 200 5.0 14.0 0.00 0.00 0.00 31 1015.4
20260503204055 66 221 9.0 14.0 0.00 0.00 0.00 30 1015.5
20260503203555 66 222 5.0 10.0 0.00 0.00 0.00 30 1015.6
20260503203057 67 244 6.0 10.0 0.00 0.00 0.00 30 1015.7
20260503202554 67 185 4.0 11.0 0.00 0.00 0.00 30 1015.7
20260503202053 67 221 3.0 10.0 0.00 0.00 0.00 31 1015.7
20260503201553 67 229 6.0 12.0 0.00 0.00 0.00 29 1016.0
20260503201050 67 240 3.0 13.0 0.00 0.00 0.00 30 1016.1
20260503200549 67 207 6.0 13.0 0.00 0.00 0.00 29 1016.3
20260503200055 66 263 3.0 13.0 0.00 0.00 0.00 31 1016.3
20260503195553 66 214 7.0 13.0 0.00 0.00 0.00 30 1016.4
20260503195049 67 277 5.0 12.0 0.00 0.00 0.00 31 1016.4
20260503194556 67 286 4.0 14.0 0.00 0.00 0.00 31 1016.5
20260503194044 66 304 9.0 14.0 0.00 0.00 0.00 30 1016.6
20260503193543 66 290 6.0 10.0 0.00 0.00 0.00 30 1016.7
20260503193043 66 303 6.0 10.0 0.00 0.00 0.00 32 1016.8
20260503192540 65 170 2.0 9.0 0.00 0.00 0.00 32 1016.8
20260503192040 65 229 6.0 9.0 0.00 0.00 0.00 31 1016.9
20260503191540 65 360 3.0 10.0 0.00 0.00 0.00 32 1017.0
20260503191041 64 231 5.0 12.0 0.00 0.00 0.00 32 1017.2
20260503190538 64 183 6.0 12.0 0.00 0.00 0.00 32 1017.3
20260503190037 64 247 7.0 13.0 0.00 0.00 0.00 32 1017.5
20260503185536 65 241 6.0 13.0 0.00 0.00 0.00 32 1017.6